Observations for Trim Market St
| Time | AQI | Temp °C | Hum % | Pres Pa | CO μg/m³ | H₂S μg/m³ | NO μg/m³ | NO₂ μg/m³ | O₃ μg/m³ | SO₂ μg/m³ | PM1 μg/m³ | PM2.5 μg/m³ | PM10 μg/m³ |
|---|---|---|---|---|---|---|---|---|---|---|---|---|---|
| Thursday 16 July 2026 | |||||||||||||
| 18:17 | 2 | 30 | 36 | 65,935 | 0 | 28.66 | 0 | 21.46 | 29.88 | 0 | 6.41 | 13.19 | 19.94 |
| 18:16 | 2 | 30.1 | 36 | 65,966 | 0 | 26.11 | 0 | 26.67 | 20.55 | 0 | 7.13 | 13.75 | 19.97 |
| 18:15 | 2 | 30.1 | 36 | 65,974 | 0 | 22.84 | 0 | 31.99 | 8.48 | 0 | 6.41 | 12.69 | 18.32 |
| 18:14 | 2 | 30.1 | 36 | 65,979 | 0 | 22.33 | 0 | 20.79 | 26.2 | 0 | 9.26 | 16.97 | 24.14 |
| 18:13 | 2 | 30.2 | 36 | 65,987 | 0 | 20.93 | 0 | 18.07 | 23.2 | 0 | 8.55 | 14.3 | 19.99 |
| 18:12 | 2 | 30.3 | 36 | 65,999 | 0 | 23.98 | 0 | 17.96 | 29.9 | 0 | 7.84 | 13.78 | 22.5 |
| 18:11 | 2 | 30.3 | 35 | 66,011 | 0 | 25.03 | 0 | 18.67 | 31.23 | 0 | 7.13 | 13.78 | 20.84 |
| 18:10 | 2 | 30.4 | 35 | 66,025 | 0 | 23.84 | 0 | 15.75 | 35.46 | 0 | 7.84 | 15.93 | 22.52 |
| 18:09 | 2 | 30.5 | 35 | 66,017 | 0 | 24.32 | 0 | 16.94 | 34.12 | 0 | 9.26 | 14.33 | 19.19 |
| 18:07 | 2 | 30.6 | 35 | 66,035 | 0 | 23.7 | 0 | 15.84 | 33.62 | 0 | 7.84 | 14.36 | 20.89 |
| 18:06 | 2 | 30.7 | 35 | 66,056 | 0 | 24.96 | 0 | 16.82 | 27.17 | 0 | 8.55 | 16.5 | 25.07 |
| 18:05 | 2 | 30.7 | 35 | 66,084 | 0 | 27.34 | 0 | 16.91 | 36.02 | 0 | 8.55 | 15.96 | 21.72 |
| 18:04 | 2 | 30.7 | 35 | 66,092 | 0 | 28.36 | 0 | 15.93 | 33.21 | 0 | 7.84 | 13.83 | 20.9 |
| 18:03 | 2 | 30.8 | 35 | 66,129 | 0 | 31.96 | 0 | 17.71 | 39.31 | 0 | 8.55 | 13.3 | 19.24 |
| 18:02 | 2 | 30.9 | 35 | 66,149 | 0 | 30.53 | 0 | 16.9 | 38.81 | 0 | 6.41 | 11.7 | 15.06 |
| 18:01 | 2 | 30.9 | 34 | 66,143 | 0 | 31.82 | 0 | 17.92 | 39.97 | 0 | 8.55 | 13.86 | 19.26 |
| 18:00 | 2 | 31 | 34 | 66,167 | 0 | 30.63 | 0 | 17.52 | 31.67 | 0 | 8.55 | 13.87 | 19.28 |
| 17:59 | 2 | 31.1 | 34 | 66,165 | 0 | 32.05 | 0 | 19.2 | 31.26 | 0 | 8.55 | 17.1 | 23.49 |
| 17:57 | 2 | 31.2 | 34 | 66,192 | 0 | 31.43 | 0 | 18.32 | 41.32 | 0 | 8.55 | 14.44 | 20.16 |
| 17:52 | 2 | 31.6 | 33 | 66,242 | 0 | 32.87 | 0 | 16.24 | 39.35 | 0 | 8.55 | 15.6 | 21.11 |